Location: Songkhla
(7.2000°N, 100.6000°E)
Time: 02:22:20
(UTC+07:00)

BRICSAT 2 - Pass Details

Date: 24 June 2021
Orbit: 295 x 638 km, 28.5° (Epoch: 28 July)

Event Time Altitude Azimuth Distance (km) Brightness Sun altitude
Rises 08:17:41 0° 218° (SW) 2,422 ? 29.8°
Reaches altitude 10° 08:20:21 10° 201° (SSW) 1,471 ? 30.4°
Maximum altitude 08:22:51 20° 152° (SSE) 966 ? 31.0°
Drops below altitude 10° 08:25:09 10° 102° (ESE) 1,333 ? 31.5°
Sets 08:27:18 0° 84° (E) 2,069 ? 32.0°
